| time (UTC) | temp C | wind direction | speed KPH | gust KPH | rain 1hr cm | rain 24hr cm | rain mn cm | humidity % | barometer mb |
| 20260904212544 | 38 | 227 | 12.9 | 22.5 | 0.00 | 0.00 | 0.00 | 12 | 1013.0 |
| 20260904212040 | 38 | 203 | 12.9 | 20.9 | 0.00 | 0.00 | 0.00 | 13 | 1013.1 |
| 20260904211539 | 38 | 207 | 8.0 | 27.4 | 0.00 | 0.00 | 0.00 | 13 | 1012.9 |
| 20260904211035 | 38 | 229 | 1.6 | 20.9 | 0.00 | 0.00 | 0.00 | 12 | 1012.9 |
| 20260904210534 | 38 | 219 | 17.7 | 27.4 | 0.00 | 0.00 | 0.00 | 13 | 1013.0 |
| 20260904210031 | 38 | 235 | 20.9 | 29.0 | 0.00 | 0.00 | 0.00 | 13 | 1013.1 |
| 20260904205531 | 38 | 227 | 3.2 | 17.7 | 0.00 | 0.00 | 0.00 | 13 | 1013.2 |
| 20260904205027 | 38 | 241 | 12.9 | 19.3 | 0.00 | 0.00 | 0.00 | 12 | 1013.3 |
| 20260904204523 | 38 | 235 | 14.5 | 17.7 | 0.00 | 0.00 | 0.00 | 13 | 1013.1 |
| 20260904204019 | 38 | 233 | 16.1 | 24.1 | 0.00 | 0.00 | 0.00 | 13 | 1013.2 |
| 20260904203515 | 37 | 244 | 14.5 | 20.9 | 0.00 | 0.00 | 0.00 | 14 | 1013.2 |
| 20260904203011 | 38 | 226 | 3.2 | 4.8 | 0.00 | 0.00 | 0.00 | 12 | 1013.4 |
| 20260904202507 | 38 | 220 | 12.9 | 16.1 | 0.00 | 0.00 | 0.00 | 12 | 1013.1 |
| 20260904202003 | 38 | 244 | 20.9 | 24.1 | 0.00 | 0.00 | 0.00 | 12 | 1013.1 |
| 20260904201457 | 37 | 252 | 11.3 | 29.0 | 0.00 | 0.00 | 0.00 | 12 | 1013.4 |
| 20260904200953 | 38 | 213 | 3.2 | 24.1 | 0.00 | 0.00 | 0.00 | 12 | 1013.4 |
| 20260904200451 | 38 | 242 | 20.9 | 25.7 | 0.00 | 0.00 | 0.00 | 12 | 1013.3 |
| 20260904195952 | 37 | 6 | 0.0 | 4.8 | 0.00 | 0.00 | 0.00 | 13 | 1013.6 |
| 20260904195450 | 37 | 149 | 4.8 | 9.7 | 0.00 | 0.00 | 0.00 | 12 | 1013.5 |
| 20260904194949 | 37 | 274 | 4.8 | 8.0 | 0.00 | 0.00 | 0.00 | 13 | 1013.6 |
| 20260904194444 | 37 | 305 | 0.0 | 4.8 | 0.00 | 0.00 | 0.00 | 13 | 1013.6 |
| 20260904193939 | 37 | 271 | 3.2 | 4.8 | 0.00 | 0.00 | 0.00 | 12 | 1013.9 |
| 20260904193435 | 37 | 24 | 1.6 | 4.8 | 0.00 | 0.00 | 0.00 | 13 | 1014.0 |
| 20260904192930 | 36 | 338 | 3.2 | 8.0 | 0.00 | 0.00 | 0.00 | 13 | 1014.0 |
| 20260904192425 | 37 | 78 | 3.2 | 8.0 | 0.00 | 0.00 | 0.00 | 13 | 1014.0 |
| 20260904191921 | 37 | 35 | 3.2 | 6.4 | 0.00 | 0.00 | 0.00 | 13 | 1014.0 |
| 20260904191418 | 37 | 43 | 4.8 | 6.4 | 0.00 | 0.00 | 0.00 | 13 | 1014.0 |
| 20260904190914 | 36 | 85 | 3.2 | 9.7 | 0.00 | 0.00 | 0.00 | 13 | 1014.3 |
| 20260904190409 | 37 | 238 | 0.0 | 3.2 | 0.00 | 0.00 | 0.00 | 13 | 1014.3 |
| 20260904185906 | 36 | 242 | 0.0 | 4.8 | 0.00 | 0.00 | 0.00 | 14 | 1014.4 |
| 20260904185401 | 36 | 310 | 0.0 | 3.2 | 0.00 | 0.00 | 0.00 | 14 | 1014.6 |
| 20260904184901 | 35 | 119 | 1.6 | 11.3 | 0.00 | 0.00 | 0.00 | 14 | 1014.7 |
| 20260904184356 | 36 | 82 | 4.8 | 6.4 | 0.00 | 0.00 | 0.00 | 13 | 1014.8 |
| 20260904183851 | 36 | 346 | 1.6 | 4.8 | 0.00 | 0.00 | 0.00 | 14 | 1014.7 |
| 20260904183346 | 36 | 81 | 4.8 | 4.8 | 0.00 | 0.00 | 0.00 | 14 | 1014.7 |
| 20260904182842 | 35 | 129 | 0.0 | 4.8 | 0.00 | 0.00 | 0.00 | 14 | 1015.0 |
| 20260904182336 | 36 | 85 | 4.8 | 6.4 | 0.00 | 0.00 | 0.00 | 14 | 1015.0 |
| 20260904181832 | 35 | 70 | 3.2 | 6.4 | 0.00 | 0.00 | 0.00 | 14 | 1015.0 |
| 20260904181332 | 35 | 317 | 8.0 | 8.0 | 0.00 | 0.00 | 0.00 | 15 | 1015.1 |
| 20260904180827 | 35 | 219 | 3.2 | 8.0 | 0.00 | 0.00 | 0.00 | 15 | 1015.1 |
| 20260904180323 | 35 | 79 | 4.8 | 8.0 | 0.00 | 0.00 | 0.00 | 15 | 1015.0 |
| 20260904175821 | 35 | 79 | 3.2 | 4.8 | 0.00 | 0.00 | 0.00 | 15 | 1015.0 |
| 20260904175320 | 35 | 88 | 4.8 | 6.4 | 0.00 | 0.00 | 0.00 | 14 | 1014.9 |
| 20260904174815 | 34 | 268 | 3.2 | 3.2 | 0.00 | 0.00 | 0.00 | 14 | 1015.2 |
| 20260904174311 | 33 | 348 | 3.2 | 6.4 | 0.00 | 0.00 | 0.00 | 16 | 1014.9 |
| 20260904173807 | 33 | 41 | 0.0 | 4.8 | 0.00 | 0.00 | 0.00 | 15 | 1015.1 |
| 20260904173302 | 33 | 296 | 0.0 | 4.8 | 0.00 | 0.00 | 0.00 | 15 | 1015.0 |
| 20260904172758 | 32 | 296 | 4.8 | 6.4 | 0.00 | 0.00 | 0.00 | 15 | 1015.2 |
| 20260904172257 | 33 | 35 | 1.6 | 3.2 | 0.00 | 0.00 | 0.00 | 16 | 1015.3 |
| 20260904171753 | 33 | 98 | 0.0 | 1.6 | 0.00 | 0.00 | 0.00 | 15 | 1015.2 |
| 20260904171248 | 33 | 235 | 1.6 | 4.8 | 0.00 | 0.00 | 0.00 | 15 | 1015.2 |
| 20260904170744 | 33 | 203 | 1.6 | 3.2 | 0.00 | 0.00 | 0.00 | 15 | 1015.3 |
| 20260904170239 | 33 | 196 | 0.0 | 3.2 | 0.00 | 0.00 | 0.00 | 15 | 1015.3 |
| 20260904165738 | 32 | 2 | 1.6 | 3.2 | 0.00 | 0.00 | 0.00 | 16 | 1015.1 |
| 20260904165232 | 32 | 12 | 0.0 | 3.2 | 0.00 | 0.00 | 0.00 | 16 | 1015.3 |
| 20260904164732 | 32 | 98 | 4.8 | 4.8 | 0.00 | 0.00 | 0.00 | 16 | 1015.2 |
| 20260904164227 | 32 | 2 | 3.2 | 3.2 | 0.00 | 0.00 | 0.00 | 18 | 1015.2 |
| 20260904163724 | 31 | 83 | 3.2 | 4.8 | 0.00 | 0.00 | 0.00 | 17 | 1015.2 |
| 20260904163219 | 30 | 316 | 4.8 | 4.8 | 0.00 | 0.00 | 0.00 | 18 | 1015.0 |
| 20260904162718 | 30 | 275 | 0.0 | 3.2 | 0.00 | 0.00 | 0.00 | 18 | 1015.0 |
| 20260904162212 | 31 | 237 | 3.2 | 4.8 | 0.00 | 0.00 | 0.00 | 17 | 1015.1 |
| 20260904161708 | 31 | 62 | 0.0 | 4.8 | 0.00 | 0.00 | 0.00 | 17 | 1015.1 |
| 20260904161203 | 30 | 91 | 3.2 | 6.4 | 0.00 | 0.00 | 0.00 | 18 | 1015.1 |
| 20260904160700 | 31 | 210 | 0.0 | 4.8 | 0.00 | 0.00 | 0.00 | 17 | 1015.1 |
| 20260904160154 | 30 | 60 | 0.0 | 3.2 | 0.00 | 0.00 | 0.00 | 18 | 1015.0 |
| 20260904155649 | 30 | 76 | 1.6 | 6.4 | 0.00 | 0.00 | 0.00 | 17 | 1015.0 |
| 20260904155148 | 30 | 98 | 3.2 | 6.4 | 0.00 | 0.00 | 0.00 | 18 | 1014.9 |
| 20260904154647 | 30 | 99 | 4.8 | 6.4 | 0.00 | 0.00 | 0.00 | 19 | 1014.9 |
| 20260904154142 | 30 | 170 | 0.0 | 4.8 | 0.00 | 0.00 | 0.00 | 18 | 1014.7 |
| 20260904153637 | 30 | 83 | 0.0 | 4.8 | 0.00 | 0.00 | 0.00 | 18 | 1014.6 |
| 20260904153137 | 30 | 142 | 0.0 | 3.2 | 0.00 | 0.00 | 0.00 | 19 | 1014.7 |
| 20260904152634 | 30 | 100 | 3.2 | 4.8 | 0.00 | 0.00 | 0.00 | 18 | 1014.7 |
| 20260904152129 | 30 | 348 | 0.0 | 1.6 | 0.00 | 0.00 | 0.00 | 18 | 1014.8 |
| 20260904151624 | 29 | 71 | 3.2 | 3.2 | 0.00 | 0.00 | 0.00 | 18 | 1014.6 |
| 20260904151123 | 29 | 80 | 0.0 | 4.8 | 0.00 | 0.00 | 0.00 | 19 | 1014.8 |
| 20260904150619 | 29 | 59 | 1.6 | 4.8 | 0.00 | 0.00 | 0.00 | 19 | 1014.6 |
| 20260904150114 | 28 | 91 | 3.2 | 6.4 | 0.00 | 0.00 | 0.00 | 19 | 1014.5 |
| 20260904145612 | 28 | 67 | 3.2 | 4.8 | 0.00 | 0.00 | 0.00 | 20 | 1014.6 |
| 20260904145108 | 28 | 81 | 3.2 | 3.2 | 0.00 | 0.00 | 0.00 | 20 | 1014.6 |
| 20260904144604 | 27 | 115 | 1.6 | 3.2 | 0.00 | 0.00 | 0.00 | 21 | 1014.5 |
| 20260904144059 | 27 | 356 | 0.0 | 3.2 | 0.00 | 0.00 | 0.00 | 22 | 1014.6 |
| 20260904143555 | 26 | 68 | 0.0 | 1.6 | 0.00 | 0.00 | 0.00 | 23 | 1014.5 |
| 20260904143051 | 25 | 137 | 1.6 | 3.2 | 0.00 | 0.00 | 0.00 | 24 | 1014.5 |
| 20260904142548 | 24 | 284 | 0.0 | 3.2 | 0.00 | 0.00 | 0.00 | 25 | 1014.6 |
| 20260904142043 | 24 | 218 | 0.0 | 1.6 | 0.00 | 0.00 | 0.00 | 26 | 1014.4 |
| 20260904141538 | 22 | 119 | 0.0 | 3.2 | 0.00 | 0.00 | 0.00 | 27 | 1014.5 |
| 20260904141034 | 21 | 213 | 0.0 | 3.2 | 0.00 | 0.00 | 0.00 | 28 | 1014.3 |
| 20260904140533 | 21 | 249 | 0.0 | 3.2 | 0.00 | 0.00 | 0.00 | 27 | 1014.1 |
| 20260904140028 | 21 | 176 | 0.0 | 3.2 | 0.00 | 0.00 | 0.00 | 28 | 1014.4 |
| 20260904135527 | 21 | 179 | 3.2 | 3.2 | 0.00 | 0.00 | 0.00 | 28 | 1014.3 |
| 20260904135024 | 21 | 220 | 3.2 | 3.2 | 0.00 | 0.00 | 0.00 | 27 | 1014.2 |
| 20260904134518 | 21 | 192 | 0.0 | 3.2 | 0.00 | 0.00 | 0.00 | 27 | 1014.0 |
| 20260904134013 | 21 | 229 | 0.0 | 3.2 | 0.00 | 0.00 | 0.00 | 28 | 1014.0 |
| 20260904133507 | 20 | 209 | 0.0 | 3.2 | 0.00 | 0.00 | 0.00 | 28 | 1014.1 |
| 20260904133003 | 19 | 155 | 1.6 | 3.2 | 0.00 | 0.00 | 0.00 | 31 | 1013.7 |
| 20260904132458 | 20 | 264 | 3.2 | 3.2 | 0.00 | 0.00 | 0.00 | 30 | 1013.7 |
| 20260904131957 | 20 | 212 | 0.0 | 3.2 | 0.00 | 0.00 | 0.00 | 30 | 1013.6 |
| 20260904131453 | 20 | 160 | 1.6 | 1.6 | 0.00 | 0.00 | 0.00 | 31 | 1013.5 |
| 20260904130948 | 20 | 165 | 0.0 | 1.6 | 0.00 | 0.00 | 0.00 | 31 | 1013.4 |
| 20260904130448 | 20 | 256 | 0.0 | 3.2 | 0.00 | 0.00 | 0.00 | 29 | 1013.3 |
| 20260904125948 | 20 | 232 | 3.2 | 6.4 | 0.00 | 0.00 | 0.00 | 30 | 1013.3 |
| 20260904125445 | 20 | 49 | 0.0 | 3.2 | 0.00 | 0.00 | 0.00 | 30 | 1013.2 |
| 20260904124944 | 20 | 46 | 1.6 | 3.2 | 0.00 | 0.00 | 0.00 | 29 | 1013.4 |
| 20260904124440 | 20 | 240 | 1.6 | 3.2 | 0.00 | 0.00 | 0.00 | 29 | 1013.2 |
| 20260904123935 | 21 | 305 | 0.0 | 3.2 | 0.00 | 0.00 | 0.00 | 29 | 1013.1 |
| 20260904123430 | 20 | 279 | 0.0 | 4.8 | 0.00 | 0.00 | 0.00 | 30 | 1013.2 |
| 20260904122925 | 21 | 243 | 1.6 | 3.2 | 0.00 | 0.00 | 0.00 | 29 | 1013.1 |
| 20260904122425 | 20 | 202 | 0.0 | 3.2 | 0.00 | 0.00 | 0.00 | 31 | 1013.2 |
| 20260904121919 | 20 | 242 | 3.2 | 4.8 | 0.00 | 0.00 | 0.00 | 30 | 1013.2 |
| 20260904121416 | 20 | 211 | 0.0 | 1.6 | 0.00 | 0.00 | 0.00 | 30 | 1013.2 |
| 20260904120912 | 21 | 223 | 0.0 | 1.6 | 0.00 | 0.00 | 0.00 | 30 | 1013.2 |
| 20260904120408 | 21 | 299 | 0.0 | 3.2 | 0.00 | 0.00 | 0.00 | 30 | 1013.2 |
| 20260904115903 | 21 | 251 | 0.0 | 3.2 | 0.00 | 0.00 | 0.00 | 29 | 1013.1 |
| 20260904115358 | 21 | 199 | 3.2 | 3.2 | 0.00 | 0.00 | 0.00 | 29 | 1013.2 |
| 20260904114853 | 22 | 89 | 0.0 | 3.2 | 0.00 | 0.00 | 0.00 | 29 | 1013.2 |
| 20260904114347 | 23 | 82 | 3.2 | 3.2 | 0.00 | 0.00 | 0.00 | 27 | 1013.2 |
| 20260904113842 | 23 | 48 | 0.0 | 3.2 | 0.00 | 0.00 | 0.00 | 27 | 1013.3 |
| 20260904113342 | 23 | 100 | 1.6 | 3.2 | 0.00 | 0.00 | 0.00 | 27 | 1013.1 |
| 20260904112837 | 23 | 306 | 0.0 | 3.2 | 0.00 | 0.00 | 0.00 | 27 | 1013.1 |
| 20260904112332 | 24 | 262 | 3.2 | 3.2 | 0.00 | 0.00 | 0.00 | 26 | 1013.1 |
| 20260904111828 | 25 | 110 | 4.8 | 9.7 | 0.00 | 0.00 | 0.00 | 25 | 1013.0 |
| 20260904111324 | 23 | 146 | 1.6 | 3.2 | 0.00 | 0.00 | 0.00 | 27 | 1013.1 |
| 20260904110819 | 23 | 251 | 4.8 | 6.4 | 0.00 | 0.00 | 0.00 | 27 | 1013.0 |
| 20260904110318 | 24 | 281 | 1.6 | 3.2 | 0.00 | 0.00 | 0.00 | 27 | 1012.8 |
| 20260904105813 | 23 | 236 | 1.6 | 4.8 | 0.00 | 0.00 | 0.00 | 27 | 1012.9 |
| 20260904105308 | 23 | 233 | 3.2 | 6.4 | 0.00 | 0.00 | 0.00 | 28 | 1012.9 |
| 20260904104803 | 23 | 158 | 0.0 | 3.2 | 0.00 | 0.00 | 0.00 | 28 | 1012.8 |
| 20260904104258 | 24 | 164 | 3.2 | 3.2 | 0.00 | 0.00 | 0.00 | 28 | 1012.6 |
| 20260904103755 | 24 | 125 | 0.0 | 3.2 | 0.00 | 0.00 | 0.00 | 27 | 1012.9 |
| 20260904103254 | 23 | 139 | 0.0 | 3.2 | 0.00 | 0.00 | 0.00 | 27 | 1012.7 |
| 20260904102750 | 23 | 285 | 1.6 | 3.2 | 0.00 | 0.00 | 0.00 | 27 | 1012.6 |
| 20260904102246 | 24 | 269 | 0.0 | 3.2 | 0.00 | 0.00 | 0.00 | 27 | 1012.7 |
| 20260904101742 | 24 | 150 | 3.2 | 4.8 | 0.00 | 0.00 | 0.00 | 27 | 1012.5 |
| 20260904101238 | 23 | 150 | 0.0 | 3.2 | 0.00 | 0.00 | 0.00 | 27 | 1012.4 |
| 20260904100733 | 23 | 198 | 0.0 | 3.2 | 0.00 | 0.00 | 0.00 | 28 | 1012.5 |
| 20260904100229 | 23 | 144 | 0.0 | 1.6 | 0.00 | 0.00 | 0.00 | 29 | 1012.4 |
| 20260904095728 | 24 | 202 | 0.0 | 4.8 | 0.00 | 0.00 | 0.00 | 28 | 1012.3 |
| 20260904095224 | 23 | 145 | 0.0 | 4.8 | 0.00 | 0.00 | 0.00 | 28 | 1012.4 |
| 20260904094719 | 22 | 190 | 3.2 | 3.2 | 0.00 | 0.00 | 0.00 | 29 | 1012.1 |
| 20260904094214 | 21 | 130 | 0.0 | 3.2 | 0.00 | 0.00 | 0.00 | 31 | 1012.2 |
| 20260904093711 | 22 | 240 | 0.0 | 4.8 | 0.00 | 0.00 | 0.00 | 30 | 1012.0 |
| 20260904093209 | 22 | 91 | 3.2 | 4.8 | 0.00 | 0.00 | 0.00 | 29 | 1012.1 |
| 20260904092706 | 23 | 217 | 3.2 | 3.2 | 0.00 | 0.00 | 0.00 | 29 | 1012.1 |
| 20260904092201 | 23 | 179 | 1.6 | 4.8 | 0.00 | 0.00 | 0.00 | 29 | 1012.2 |
| 20260904091657 | 22 | 11 | 3.2 | 3.2 | 0.00 | 0.00 | 0.00 | 30 | 1012.1 |
| 20260904091157 | 22 | 322 | 0.0 | 3.2 | 0.00 | 0.00 | 0.00 | 32 | 1012.3 |
| 20260904090653 | 22 | 143 | 3.2 | 3.2 | 0.00 | 0.00 | 0.00 | 33 | 1012.5 |
| 20260904090148 | 22 | 271 | 0.0 | 1.6 | 0.00 | 0.00 | 0.00 | 31 | 1012.4 |
| 20260904085644 | 22 | 235 | 0.0 | 4.8 | 0.00 | 0.00 | 0.00 | 31 | 1012.5 |
| 20260904085143 | 23 | 55 | 0.0 | 3.2 | 0.00 | 0.00 | 0.00 | 30 | 1012.4 |
| 20260904084639 | 23 | 59 | 3.2 | 4.8 | 0.00 | 0.00 | 0.00 | 29 | 1012.6 |
| 20260904084135 | 23 | 258 | 3.2 | 6.4 | 0.00 | 0.00 | 0.00 | 30 | 1012.5 |
| 20260904083631 | 24 | 269 | 0.0 | 3.2 | 0.00 | 0.00 | 0.00 | 29 | 1012.4 |
| 20260904083127 | 24 | 231 | 3.2 | 3.2 | 0.00 | 0.00 | 0.00 | 30 | 1012.5 |
| 20260904082622 | 24 | 299 | 0.0 | 1.6 | 0.00 | 0.00 | 0.00 | 30 | 1012.6 |
| 20260904082117 | 25 | 87 | 1.6 | 3.2 | 0.00 | 0.00 | 0.00 | 30 | 1012.6 |
| 20260904081612 | 25 | 249 | 0.0 | 3.2 | 0.00 | 0.00 | 0.00 | 30 | 1012.4 |
| 20260904081108 | 25 | 224 | 0.0 | 3.2 | 0.00 | 0.00 | 0.00 | 31 | 1012.8 |
| 20260904080603 | 25 | 89 | 0.0 | 0.0 | 0.00 | 0.00 | 0.00 | 29 | 1012.8 |
| 20260904080059 | 26 | 85 | 1.6 | 3.2 | 0.00 | 0.00 | 0.00 | 28 | 1012.9 |
| 20260904075555 | 26 | 334 | 1.6 | 4.8 | 0.00 | 0.00 | 0.00 | 27 | 1012.8 |
| 20260904075049 | 26 | 15 | 3.2 | 4.8 | 0.00 | 0.00 | 0.00 | 27 | 1012.9 |
| 20260904074549 | 27 | 54 | 3.2 | 4.8 | 0.00 | 0.00 | 0.00 | 25 | 1012.8 |
| 20260904074043 | 27 | 316 | 6.4 | 12.9 | 0.00 | 0.00 | 0.00 | 21 | 1012.8 |
| 20260904073538 | 26 | 305 | 0.0 | 4.8 | 0.00 | 0.00 | 0.00 | 26 | 1013.0 |
| 20260904073035 | 26 | 248 | 1.6 | 4.8 | 0.00 | 0.00 | 0.00 | 30 | 1013.2 |
| 20260904072530 | 25 | 330 | 3.2 | 4.8 | 0.00 | 0.00 | 0.00 | 34 | 1013.1 |
| 20260904072025 | 25 | 55 | 0.0 | 1.6 | 0.00 | 0.00 | 0.00 | 36 | 1013.1 |
| 20260904071521 | 25 | 85 | 3.2 | 4.8 | 0.00 | 0.00 | 0.00 | 36 | 1013.1 |
| 20260904071016 | 25 | 63 | 0.0 | 4.8 | 0.00 | 0.00 | 0.00 | 36 | 1013.3 |
| 20260904070514 | 25 | 284 | 3.2 | 8.0 | 0.00 | 0.00 | 0.00 | 36 | 1013.1 |
| 20260904070009 | 26 | 314 | 9.7 | 11.3 | 0.00 | 0.00 | 0.00 | 34 | 1013.2 |
| 20260904065505 | 27 | 334 | 6.4 | 16.1 | 0.00 | 0.00 | 0.00 | 21 | 1013.0 |
| 20260904065000 | 26 | 174 | 0.0 | 6.4 | 0.00 | 0.00 | 0.00 | 25 | 1012.9 |
| 20260904064456 | 25 | 353 | 1.6 | 4.8 | 0.00 | 0.00 | 0.00 | 34 | 1013.1 |
| 20260904063950 | 25 | 98 | 3.2 | 3.2 | 0.00 | 0.00 | 0.00 | 34 | 1013.0 |
| 20260904063447 | 25 | 282 | 3.2 | 3.2 | 0.00 | 0.00 | 0.00 | 33 | 1013.1 |
| 20260904062942 | 25 | 226 | 0.0 | 6.4 | 0.00 | 0.00 | 0.00 | 34 | 1012.7 |
| 20260904062438 | 26 | 244 | 1.6 | 3.2 | 0.00 | 0.00 | 0.00 | 33 | 1013.0 |
| 20260904061933 | 27 | 92 | 3.2 | 8.0 | 0.00 | 0.00 | 0.00 | 30 | 1013.0 |
| 20260904061430 | 27 | 7 | 1.6 | 8.0 | 0.00 | 0.00 | 0.00 | 31 | 1012.9 |
| 20260904060926 | 26 | 198 | 1.6 | 4.8 | 0.00 | 0.00 | 0.00 | 33 | 1012.9 |
| 20260904060421 | 26 | 194 | 4.8 | 4.8 | 0.00 | 0.00 | 0.00 | 33 | 1012.9 |
| 20260904055917 | 26 | 88 | 1.6 | 6.4 | 0.00 | 0.00 | 0.00 | 34 | 1012.8 |
| 20260904055412 | 26 | 108 | 6.4 | 6.4 | 0.00 | 0.00 | 0.00 | 34 | 1012.9 |
| 20260904054908 | 26 | 139 | 3.2 | 3.2 | 0.00 | 0.00 | 0.00 | 34 | 1012.9 |
| 20260904054403 | 26 | 190 | 1.6 | 3.2 | 0.00 | 0.00 | 0.00 | 35 | 1012.8 |
| 20260904053859 | 26 | 260 | 0.0 | 3.2 | 0.00 | 0.00 | 0.00 | 35 | 1012.8 |
| 20260904053358 | 26 | 99 | 3.2 | 6.4 | 0.00 | 0.00 | 0.00 | 34 | 1012.8 |
| 20260904052854 | 26 | 52 | 0.0 | 3.2 | 0.00 | 0.00 | 0.00 | 35 | 1012.9 |
| 20260904052350 | 26 | 89 | 0.0 | 3.2 | 0.00 | 0.00 | 0.00 | 35 | 1012.8 |
| 20260904051846 | 26 | 96 | 3.2 | 3.2 | 0.00 | 0.00 | 0.00 | 35 | 1012.8 |
| 20260904051337 | 27 | 62 | 0.0 | 3.2 | 0.00 | 0.00 | 0.00 | 35 | 1012.9 |
| 20260904050837 | 27 | 91 | 3.2 | 4.8 | 0.00 | 0.00 | 0.00 | 34 | 1012.8 |
| 20260904050334 | 27 | 107 | 4.8 | 6.4 | 0.00 | 0.00 | 0.00 | 35 | 1012.8 |
| 20260904045833 | 26 | 56 | 3.2 | 4.8 | 0.00 | 0.00 | 0.00 | 35 | 1012.9 |
| 20260904045328 | 26 | 41 | 1.6 | 4.8 | 0.00 | 0.00 | 0.00 | 36 | 1013.0 |
| 20260904044828 | 26 | 66 | 0.0 | 3.2 | 0.00 | 0.00 | 0.00 | 36 | 1012.9 |
| 20260904044325 | 26 | 359 | 3.2 | 4.8 | 0.00 | 0.00 | 0.00 | 36 | 1012.9 |
| 20260904043821 | 27 | 276 | 3.2 | 4.8 | 0.00 | 0.00 | 0.00 | 34 | 1012.8 |
| 20260904043318 | 27 | 92 | 3.2 | 6.4 | 0.00 | 0.00 | 0.00 | 34 | 1012.6 |
| 20260904042817 | 27 | 67 | 3.2 | 4.8 | 0.00 | 0.00 | 0.00 | 34 | 1012.8 |
| 20260904042314 | 26 | 46 | 0.0 | 3.2 | 0.00 | 0.00 | 0.00 | 35 | 1013.0 |
| 20260904041814 | 26 | 55 | 1.6 | 3.2 | 0.00 | 0.00 | 0.00 | 36 | 1012.8 |
| 20260904041310 | 26 | 114 | 0.0 | 1.6 | 0.00 | 0.00 | 0.00 | 35 | 1012.6 |
| 20260904040806 | 27 | 265 | 1.6 | 3.2 | 0.00 | 0.00 | 0.00 | 34 | 1012.8 |
| 20260904040301 | 27 | 261 | 4.8 | 4.8 | 0.00 | 0.00 | 0.00 | 34 | 1012.6 |
| 20260904035757 | 27 | 287 | 3.2 | 3.2 | 0.00 | 0.00 | 0.00 | 32 | 1012.5 |
| 20260904035253 | 28 | 3 | 1.6 | 3.2 | 0.00 | 0.00 | 0.00 | 31 | 1012.6 |
| 20260904034751 | 28 | 330 | 6.4 | 9.7 | 0.00 | 0.00 | 0.00 | 31 | 1012.6 |
| 20260904034248 | 30 | 285 | 11.3 | 11.3 | 0.00 | 0.00 | 0.00 | 28 | 1012.3 |
| 20260904033743 | 30 | 258 | 6.4 | 16.1 | 0.00 | 0.00 | 0.00 | 27 | 1012.4 |
| 20260904033240 | 30 | 257 | 11.3 | 14.5 | 0.00 | 0.00 | 0.00 | 28 | 1012.3 |
| 20260904032736 | 30 | 242 | 12.9 | 17.7 | 0.00 | 0.00 | 0.00 | 29 | 1012.4 |
| 20260904032234 | 30 | 269 | 11.3 | 17.7 | 0.00 | 0.00 | 0.00 | 29 | 1012.2 |
| 20260904031729 | 30 | 243 | 8.0 | 20.9 | 0.00 | 0.00 | 0.00 | 29 | 1012.1 |
| 20260904031224 | 30 | 257 | 8.0 | 22.5 | 0.00 | 0.00 | 0.00 | 29 | 1012.2 |
| 20260904030720 | 30 | 263 | 8.0 | 17.7 | 0.00 | 0.00 | 0.00 | 28 | 1012.0 |
| 20260904030215 | 30 | 277 | 9.7 | 17.7 | 0.00 | 0.00 | 0.00 | 28 | 1012.0 |
| 20260904025712 | 30 | 249 | 14.5 | 14.5 | 0.00 | 0.00 | 0.00 | 28 | 1011.7 |
| 20260904025206 | 30 | 253 | 16.1 | 20.9 | 0.00 | 0.00 | 0.00 | 28 | 1011.6 |
| 20260904024702 | 30 | 252 | 9.7 | 22.5 | 0.00 | 0.00 | 0.00 | 28 | 1011.6 |
| 20260904024157 | 30 | 276 | 8.0 | 20.9 | 0.00 | 0.00 | 0.00 | 29 | 1011.5 |
| 20260904023653 | 30 | 282 | 8.0 | 16.1 | 0.00 | 0.00 | 0.00 | 29 | 1011.3 |
| 20260904023149 | 30 | 265 | 14.5 | 14.5 | 0.00 | 0.00 | 0.00 | 29 | 1011.4 |
| 20260904022648 | 30 | 273 | 9.7 | 17.7 | 0.00 | 0.00 | 0.00 | 28 | 1011.3 |
| 20260904022146 | 30 | 263 | 8.0 | 17.7 | 0.00 | 0.00 | 0.00 | 29 | 1011.2 |
| 20260904021641 | 30 | 264 | 8.0 | 16.1 | 0.00 | 0.00 | 0.00 | 29 | 1011.4 |
| 20260904021136 | 30 | 258 | 17.7 | 22.5 | 0.00 | 0.00 | 0.00 | 29 | 1011.3 |
| 20260904020633 | 31 | 259 | 12.9 | 20.9 | 0.00 | 0.00 | 0.00 | 28 | 1011.2 |
| 20260904020126 | 31 | 284 | 11.3 | 16.1 | 0.00 | 0.00 | 0.00 | 29 | 1011.5 |
| 20260904015620 | 31 | 293 | 9.7 | 20.9 | 0.00 | 0.00 | 0.00 | 29 | 1011.4 |
| 20260904015119 | 31 | 249 | 14.5 | 29.0 | 0.00 | 0.00 | 0.00 | 29 | 1011.4 |
| 20260904014619 | 31 | 271 | 9.7 | 19.3 | 0.00 | 0.00 | 0.00 | 29 | 1011.5 |
| 20260904014114 | 31 | 258 | 14.5 | 20.9 | 0.00 | 0.00 | 0.00 | 29 | 1011.2 |
| 20260904013611 | 31 | 281 | 12.9 | 17.7 | 0.00 | 0.00 | 0.00 | 28 | 1011.3 |
| 20260904013107 | 31 | 269 | 9.7 | 20.9 | 0.00 | 0.00 | 0.00 | 28 | 1011.4 |
| 20260904012602 | 32 | 274 | 17.7 | 22.5 | 0.00 | 0.00 | 0.00 | 28 | 1011.4 |
| 20260904012101 | 32 | 266 | 11.3 | 16.1 | 0.00 | 0.00 | 0.00 | 27 | 1011.3 |
| 20260904011600 | 32 | 251 | 11.3 | 14.5 | 0.00 | 0.00 | 0.00 | 27 | 1011.3 |
| 20260904011056 | 32 | 297 | 11.3 | 16.1 | 0.00 | 0.00 | 0.00 | 26 | 1011.5 |
| 20260904010552 | 33 | 279 | 6.4 | 8.0 | 0.00 | 0.00 | 0.00 | 25 | 1011.5 |
| 20260904010049 | 33 | 249 | 12.9 | 24.1 | 0.00 | 0.00 | 0.00 | 25 | 1011.4 |
| 20260904005548 | 34 | 313 | 8.0 | 16.1 | 0.00 | 0.00 | 0.00 | 24 | 1011.4 |
| 20260904005043 | 33 | 272 | 11.3 | 17.7 | 0.00 | 0.00 | 0.00 | 25 | 1011.2 |
| 20260904004539 | 33 | 256 | 8.0 | 22.5 | 0.00 | 0.00 | 0.00 | 25 | 1011.3 |
| 20260904004034 | 34 | 305 | 11.3 | 22.5 | 0.00 | 0.00 | 0.00 | 26 | 1011.2 |
| 20260904003530 | 34 | 265 | 11.3 | 20.9 | 0.00 | 0.00 | 0.00 | 25 | 1011.1 |
| 20260904003025 | 35 | 304 | 12.9 | 16.1 | 0.00 | 0.00 | 0.00 | 24 | 1011.1 |
| 20260904002521 | 35 | 290 | 8.0 | 17.7 | 0.00 | 0.00 | 0.00 | 24 | 1011.3 |
| 20260904002021 | 35 | 297 | 14.5 | 17.7 | 0.00 | 0.00 | 0.00 | 24 | 1011.4 |
| 20260904001517 | 35 | 244 | 19.3 | 25.7 | 0.00 | 0.00 | 0.00 | 25 | 1011.2 |
| 20260904001016 | 35 | 256 | 8.0 | 22.5 | 0.00 | 0.00 | 0.00 | 23 | 1011.2 |
| 20260904000515 | 35 | 317 | 17.7 | 25.7 | 0.00 | 0.00 | 0.00 | 24 | 1011.2 |
| 20260904000012 | 35 | 266 | 19.3 | 32.2 | 0.00 | 0.00 | 0.00 | 24 | 1011.3 |
| 20260903235511 | 35 | 307 | 11.3 | 24.1 | 0.00 | 0.00 | 0.00 | 24 | 1011.2 |
| 20260903235007 | 35 | 242 | 14.5 | 30.6 | 0.00 | 0.00 | 0.00 | 23 | 1011.3 |
| 20260903234502 | 35 | 271 | 9.7 | 29.0 | 0.00 | 0.00 | 0.00 | 25 | 1011.3 |
| 20260903233958 | 35 | 268 | 19.3 | 30.6 | 0.00 | 0.00 | 0.00 | 25 | 1011.2 |
| 20260903233454 | 35 | 261 | 14.5 | 17.7 | 0.00 | 0.00 | 0.00 | 25 | 1011.5 |
| 20260903232949 | 35 | 248 | 17.7 | 30.6 | 0.00 | 0.00 | 0.00 | 25 | 1011.7 |
| 20260903232444 | 35 | 258 | 14.5 | 22.5 | 0.00 | 0.00 | 0.00 | 24 | 1011.6 |
| 20260903231944 | 35 | 263 | 19.3 | 27.4 | 0.00 | 0.00 | 0.00 | 23 | 1011.8 |
| 20260903231439 | 35 | 268 | 12.9 | 35.4 | 0.00 | 0.00 | 0.00 | 23 | 1012.0 |
| 20260903230933 | 35 | 292 | 12.9 | 29.0 | 0.00 | 0.00 | 0.00 | 22 | 1011.8 |
| 20260903230429 | 36 | 295 | 14.5 | 24.1 | 0.00 | 0.00 | 0.00 | 22 | 1012.1 |
| 20260903225926 | 36 | 258 | 16.1 | 30.6 | 0.00 | 0.00 | 0.00 | 21 | 1012.0 |
| 20260903225421 | 36 | 249 | 20.9 | 32.2 | 0.00 | 0.00 | 0.00 | 20 | 1011.8 |
| 20260903224917 | 36 | 258 | 17.7 | 32.2 | 0.00 | 0.00 | 0.00 | 20 | 1012.2 |
| 20260903224413 | 36 | 277 | 16.1 | 24.1 | 0.00 | 0.00 | 0.00 | 19 | 1012.2 |
| 20260903223909 | 36 | 237 | 8.0 | 22.5 | 0.00 | 0.00 | 0.00 | 18 | 1012.2 |
| 20260903223408 | 36 | 254 | 16.1 | 29.0 | 0.00 | 0.00 | 0.00 | 17 | 1012.1 |
| 20260903222907 | 36 | 253 | 22.5 | 27.4 | 0.00 | 0.00 | 0.00 | 18 | 1012.3 |
| 20260903222403 | 36 | 280 | 12.9 | 27.4 | 0.00 | 0.00 | 0.00 | 17 | 1012.4 |
| 20260903221857 | 36 | 242 | 24.1 | 33.8 | 0.00 | 0.00 | 0.00 | 17 | 1012.2 |
| 20260903221355 | 37 | 229 | 20.9 | 32.2 | 0.00 | 0.00 | 0.00 | 16 | 1012.4 |
| 20260903220854 | 37 | 259 | 14.5 | 27.4 | 0.00 | 0.00 | 0.00 | 15 | 1012.3 |
| 20260903220348 | 37 | 304 | 14.5 | 20.9 | 0.00 | 0.00 | 0.00 | 16 | 1012.4 |
| 20260903215847 | 37 | 241 | 20.9 | 24.1 | 0.00 | 0.00 | 0.00 | 16 | 1012.3 |
| 20260903215343 | 37 | 231 | 17.7 | 24.1 | 0.00 | 0.00 | 0.00 | 16 | 1012.4 |
| 20260903214842 | 37 | 286 | 14.5 | 20.9 | 0.00 | 0.00 | 0.00 | 16 | 1012.4 |
| 20260903214338 | 37 | 246 | 27.4 | 29.0 | 0.00 | 0.00 | 0.00 | 16 | 1012.2 |
| 20260903213837 | 37 | 302 | 12.9 | 25.7 | 0.00 | 0.00 | 0.00 | 16 | 1012.4 |
| 20260903213332 | 37 | 254 | 22.5 | 24.1 | 0.00 | 0.00 | 0.00 | 16 | 1012.5 |